[[{"header":{"parameterUnit":"m.s-1","parameterCategory":1,"la1":30.2991,"la2":30.254,"lo1":-89.0895,"lo2":-89.0444,"dy":0.0017,"dx":0.0017,"nx":28,"ny":28,"refTime":"2024-05-29T21:00:00:Z","depth":0,"parameterNumber":2,"parameterNumberName":"U-component_of_WINDS"},"data":[0,0,0,0,0,0,0,0,0,0,0,0,0,0,0,0,0,0,0,0,0,0,0,0,0,0,0,0,0,0,0,0,0,0,0,0,0,0,0,0,0,0,0,0,0,0,0,0,0,0,0,0,0,0,0,0,0,0,0.5291,0.5291,0,0.5311,0.5312,0.5312,0.5304,0.5304,0.5304,0.5303,0.5324,0.5325,0.5326,0,0,0,0,0,0,0,0,0,0,0,0,0,0.5244,0.5245,0.5291,0.5291,0.5291,0.5311,0.5312,0.5312,0.5305,0.5304,0.5303,0.5303,0.5323,0.5324,0.5326,0,0,0,0,0,0,0,0,0,0,0,0,0,0.5264,0.5245,0.5291,0.529,0.529,0.5311,0.5312,0.5312,0.5305,0.5304,0.5303,0.5303,0.5323,0.5324,0.5326,0.5349,0,0,0.533,0.5331,0,0,0,0,0,0,0,0,0.5263,0.5266,0.529,0.529,0.529,0.5305,0.5303,0.5324,0.5305,0.5299,0.5303,0.5302,0.5318,0.532,0.5325,0.535,0.535,0.533,0.5331,0.5332,0.5332,0,0,0,0,0,0,0,0.5262,0.5265,0.5299,0.529,0.5291,0.5288,0.529,0.5307,0.5312,0.53,0.5299,0.5302,0.5318,0.5324,0.5325,0.5351,0.533,0.5332,0.5333,0.5333,0.5393,0.5394,0,0,0,0,0,0,0.526,0.5264,0.5298,0.53,0.5275,0.529,0.5292,0.5301,0.5312,0.5313,0.5302,0.5301,0.5322,0.5324,0.5326,0.5352,0.5332,0.5333,0.5334,0.5392,0.5393,0.5394,0,0,0,0,0,0,0.5259,0.5263,0.5298,0.5282,0.5286,0.5291,0.5301,0.5302,0.5307,0.5314,0.5315,0.5307,0.5321,0.5324,0.5343,0.5353,0.5334,0.5335,0.5391,0.5392,0.5393,0.5405,0,0,0,0,0,0,0.5258,0.5263,0.5272,0.5282,0.5287,0.5314,0.5302,0.5302,0.531,0.5309,0.5319,0.532,0.5321,0.534,0.5344,0.5354,0.5336,0.539,0.5392,0.5393,0.5404,0.5407,0.5409,0,0,0,0,0,0.5256,0.5275,0.5273,0.5277,0.5298,0.5315,0.5318,0.5318,0.5311,0.532,0.5324,0.532,0.5351,0.5342,0.5346,0.5357,0.539,0.5391,0.5393,0.5403,0.5406,0.5409,0,0,0,0,0,0,0.5267,0.5277,0.5274,0.5297,0.5305,0.5314,0.5325,0.5322,0.5333,0.5331,0.5331,0.5334,0.5352,0.5357,0.5347,0.5379,0.5369,0.5372,0.5375,0.5378,0.5381,0.5379,0.5338,0,0,0,0,0,0.5272,0.5285,0.5292,0.5312,0.5316,0.532,0.5327,0.5327,0.5335,0.5339,0.5344,0.5352,0.5364,0.5372,0.5383,0.5405,0.5406,0.5414,0.5416,0.5418,0.542,0.5431,0.5434,0.5399,0.5399,0.5399,0,0,0.5282,0.5289,0.5297,0.5314,0.532,0.5333,0.5323,0.5337,0.5346,0.5341,0.5358,0.5362,0.5371,0.5391,0.54,0.5396,0.543,0.542,0.5422,0.5423,0.5432,0.5436,0.5439,0.54,0.54,0.54,0,0,0.5308,0.5315,0.533,0.5337,0.5346,0.5349,0.5352,0.5361,0.5363,0.5381,0.5377,0.5388,0.5408,0.5414,0.542,0.5446,0.5442,0.5449,0.5462,0.5472,0.5474,0.5477,0.5485,0.5488,0.5451,0.5451,0.5451,0,0.5319,0.5339,0.5339,0.5353,0.536,0.5355,0.5371,0.5377,0.539,0.5394,0.5389,0.5413,0.5419,0.5439,0.5445,0.5451,0.5454,0.5448,0.5474,0.5477,0.5479,0.5486,0.5489,0.5452,0.5452,0.5452,0.5452,0,0.5351,0.5365,0.5376,0.5388,0.5396,0.5411,0.5413,0.5421,0.542,0.5422,0.5439,0.5446,0.5458,0.5463,0.5462,0.5482,0.5479,0.5474,0.5464,0.5483,0.549,0.5493,0.5453,0.5453,0.5453,0.5453,0,0,0.5384,0.5395,0.5399,0.5404,0.5414,0.5424,0.5437,0.5449,0.5455,0.5464,0.5474,0.5491,0.5486,0.5493,0.5492,0.5501,0.5519,0.5495,0.5495,0.5498,0.5541,0.5544,0.5547,0.5517,0.5518,0.5518,0.554,0,0.5409,0.5434,0.5434,0.5456,0.5467,0.5463,0.5474,0.5481,0.5484,0.5493,0.5496,0.5507,0.55,0.5504,0.5512,0.5515,0.5528,0.5514,0.5526,0.5527,0.5523,0.5551,0.5555,0.5575,0.5542,0.5543,0.5543,0,0.5442,0.5451,0.5474,0.548,0.5485,0.5496,0.5505,0.5514,0.5521,0.5522,0.5529,0.5527,0.554,0.553,0.5548,0.5538,0.5543,0.5546,0.5546,0.5547,0.5536,0.5551,0.5581,0.5584,0.5548,0.5548,0.5547,0,0.5461,0.5479,0.5495,0.5499,0.5508,0.5515,0.5519,0.5525,0.5531,0.5539,0.5543,0.5553,0.5558,0.5566,0.5566,0.5559,0.5583,0.5574,0.5583,0.5583,0.5588,0.5588,0.5618,0.5593,0.5593,0.5593,0.5593,0,0.5489,0.5503,0.5504,0.5513,0.5528,0.5528,0.5543,0.5546,0.5551,0.5561,0.5558,0.5567,0.5567,0.5576,0.5577,0.559,0.5593,0.5593,0.5593,0.5593,0.5593,0.5596,0.5594,0.5594,0.5594,0.5594,0.5593,0,0.5513,0.5515,0.5531,0.5537,0.5539,0.555,0.5555,0.5563,0.5565,0.5577,0.558,0.5582,0.5592,0.5594,0.5606,0.5606,0.5622,0.5621,0.562,0.5619,0.5628,0.5627,0.5661,0.5665,0.5638,0.5639,0.5639,0,0.553,0.554,0.5547,0.5553,0.5557,0.5567,0.5573,0.5573,0.5579,0.5587,0.5594,0.5604,0.5612,0.5628,0.5631,0.564,0.5638,0.565,0.564,0.5639,0.5637,0.5636,0.5636,0.5651,0.5652,0.5652,0.5652,0,0.5559,0.5559,0.5567,0.5576,0.5583,0.559,0.5596,0.5602,0.5602,0.5609,0.5619,0.5625,0.5637,0.5646,0.5655,0.5658,0.5655,0.5655,0.5658,0.5657,0.5655,0.5655,0.5624,0.5654,0.5654,0.5654,0.5654,0.5654,0.5579,0.5587,0.5593,0.5602,0.5607,0.5613,0.5621,0.5623,0.5631,0.5641,0.564,0.5651,0.5656,0.5667,0.5671,0.568,0.5676,0.568,0.5681,0.5681,0.5682,0.5655,0.5681,0.5681,0.5681,0.5681,0.5681,0,0.5607,0.561,0.5618,0.5627,0.5634,0.563,0.5637,0.5643,0.5652,0.5658,0.5665,0.5676,0.5685,0.5688,0.5696,0.5702,0.5701,0.5704,0.5703,0.5704,0.5685,0.5682,0.5705,0.5705,0.5705,0.5705,0.5705,0.5705,0.5622,0.5635,0.5635,0.5651,0.5654,0.5664,0.5668,0.5673,0.5677,0.5689,0.5696,0.5698,0.5702,0.5711,0.5718,0.5719,0.5722,0.5726,0.5726,0.5708,0.5705,0.5703,0.57,0.5727,0.5727,0.5743,0.5744,0.5744]},{"header":{"parameterUnit":"m.s-1","parameterCategory":1,"la1":30.2991,"la2":30.254,"lo1":-89.0895,"lo2":-89.0444,"dy":0.0017,"dx":0.0017,"nx":28,"ny":28,"refTime":"2024-05-29T21:00:00:Z","depth":0,"parameterNumber":3,"parameterNumberName":"V-component_of_WINDS"},"data":[0,0,0,0,0,0,0,0,0,0,0,0,0,0,0,0,0,0,0,0,0,0,0,0,0,0,0,0,0,0,0,0,0,0,0,0,0,0,0,0,0,0,0,0,0,0,0,0,0,0,0,0,0,0,0,0,0,0,1.6693,1.6693,0,1.6692,1.6692,1.6692,1.6623,1.6621,1.6619,1.6617,1.6618,1.662,1.6621,0,0,0,0,0,0,0,0,0,0,0,0,0,1.6631,1.6633,1.6693,1.6693,1.6693,1.6692,1.6692,1.6692,1.6623,1.6621,1.6618,1.6616,1.6617,1.6619,1.6622,0,0,0,0,0,0,0,0,0,0,0,0,0,1.6647,1.6633,1.6693,1.6658,1.6655,1.6692,1.6692,1.6692,1.6623,1.6621,1.6618,1.6615,1.6617,1.6619,1.6622,1.6693,0,0,1.663,1.6631,0,0,0,0,0,0,0,0,1.6647,1.665,1.6663,1.666,1.6657,1.6655,1.6671,1.6693,1.6624,1.6635,1.6617,1.6614,1.6632,1.6634,1.664,1.6693,1.6693,1.663,1.6632,1.6633,1.6633,0,0,0,0,0,0,0,1.6645,1.6649,1.6693,1.6663,1.666,1.6642,1.6641,1.6675,1.6649,1.6634,1.6629,1.663,1.663,1.6637,1.6639,1.6693,1.663,1.6632,1.6634,1.6635,1.6802,1.6805,0,0,0,0,0,0,1.6649,1.6649,1.6693,1.6692,1.6645,1.6645,1.6644,1.6658,1.6649,1.6645,1.6632,1.6627,1.6634,1.6636,1.6639,1.672,1.6633,1.6635,1.6637,1.6799,1.6803,1.6806,0,0,0,0,0,0,1.6648,1.6654,1.6693,1.6669,1.6673,1.6649,1.6665,1.666,1.6667,1.6647,1.6642,1.6644,1.6632,1.6635,1.6679,1.6719,1.6636,1.6639,1.6796,1.68,1.6804,1.6885,0,0,0,0,0,0,1.6647,1.6654,1.6681,1.667,1.6674,1.6734,1.6668,1.6662,1.6671,1.6664,1.6657,1.6654,1.663,1.6676,1.6682,1.6721,1.6641,1.6792,1.6798,1.6803,1.6878,1.6891,1.6902,0,0,0,0,0,1.6645,1.6705,1.6683,1.6689,1.6708,1.6736,1.6739,1.671,1.6675,1.6702,1.6689,1.6654,1.6714,1.6681,1.6687,1.6728,1.679,1.6796,1.6802,1.6873,1.6889,1.6902,0,0,0,0,0,0,1.6723,1.6703,1.6679,1.6737,1.6739,1.6725,1.6758,1.6728,1.674,1.6733,1.6697,1.6696,1.6746,1.6741,1.6705,1.6795,1.6745,1.6753,1.6797,1.6811,1.6823,1.6823,1.6643,0,0,0,0,0,1.6746,1.6771,1.6752,1.6805,1.6807,1.6783,1.6794,1.6771,1.6772,1.6772,1.6763,1.6765,1.6783,1.6797,1.6814,1.6877,1.6873,1.6907,1.6919,1.6929,1.6937,1.6968,1.6982,1.6827,1.6827,1.6827,0,0,1.6796,1.6788,1.6806,1.6821,1.6819,1.6845,1.6784,1.6814,1.6832,1.6777,1.6818,1.6811,1.681,1.6864,1.6887,1.6861,1.6979,1.6937,1.6945,1.6948,1.6976,1.6991,1.7004,1.6831,1.6831,1.683,0,0,1.69,1.6897,1.694,1.6939,1.6937,1.6919,1.693,1.6919,1.6912,1.6952,1.691,1.6931,1.6965,1.6966,1.6971,1.707,1.7038,1.7077,1.7139,1.717,1.7182,1.7193,1.7228,1.7241,1.7084,1.7084,1.7084,0,1.6963,1.6999,1.6966,1.6998,1.7005,1.6954,1.6997,1.6997,1.7002,1.7007,1.6978,1.7018,1.7014,1.7066,1.709,1.7096,1.7105,1.7078,1.7183,1.7193,1.7203,1.7236,1.7249,1.7089,1.7088,1.7088,1.7088,0,1.7075,1.7101,1.7136,1.714,1.715,1.7188,1.7159,1.7174,1.7149,1.7134,1.7174,1.7167,1.7181,1.7191,1.7168,1.7239,1.7223,1.7189,1.7139,1.7223,1.7253,1.7265,1.7096,1.7094,1.7093,1.7091,0,0,1.7232,1.7213,1.7226,1.7226,1.7218,1.7238,1.7271,1.7283,1.7296,1.7299,1.7326,1.7354,1.7322,1.7328,1.7304,1.7331,1.7409,1.7293,1.7292,1.7315,1.7485,1.7511,1.7526,1.7387,1.7389,1.7391,1.7485,0,1.7331,1.7388,1.7357,1.7418,1.7441,1.7391,1.742,1.7418,1.7404,1.7421,1.7406,1.7426,1.7382,1.7385,1.7409,1.7394,1.7443,1.7387,1.7411,1.7413,1.7414,1.7542,1.757,1.7659,1.7496,1.7498,1.75,0,1.7457,1.7463,1.7526,1.7511,1.752,1.7547,1.7553,1.757,1.7566,1.7554,1.7558,1.7527,1.7558,1.7507,1.7549,1.7512,1.752,1.7514,1.7516,1.7518,1.7462,1.7547,1.7687,1.77,1.7518,1.7517,1.7515,0,1.7563,1.7588,1.7628,1.7629,1.7613,1.7633,1.7627,1.762,1.7628,1.7634,1.7639,1.7649,1.7654,1.7662,1.7634,1.7599,1.7679,1.7626,1.767,1.767,1.769,1.7689,1.7833,1.7694,1.7694,1.7694,1.7694,0,1.7678,1.7719,1.7675,1.77,1.7743,1.7706,1.7749,1.7738,1.7732,1.7753,1.771,1.7731,1.7693,1.7709,1.7687,1.7725,1.7728,1.7718,1.7712,1.7723,1.7724,1.7728,1.7721,1.7697,1.7697,1.7696,1.7695,0,1.7806,1.7778,1.7818,1.7799,1.7794,1.7827,1.781,1.7832,1.7813,1.7841,1.7845,1.7817,1.7834,1.7806,1.782,1.7805,1.7857,1.7841,1.7859,1.7854,1.7899,1.7895,1.8051,1.8069,1.7919,1.792,1.7922,0,1.7881,1.7911,1.7893,1.7904,1.79,1.7918,1.7925,1.7889,1.7898,1.7893,1.7916,1.7928,1.7937,1.7967,1.7948,1.7958,1.7942,1.7995,1.7943,1.7952,1.7942,1.7941,1.7943,1.8007,1.8009,1.801,1.8011,0,1.8018,1.8002,1.8014,1.802,1.803,1.8033,1.8034,1.8045,1.8006,1.8019,1.8035,1.8041,1.8054,1.8068,1.8072,1.8066,1.8032,1.8027,1.8038,1.8049,1.8058,1.8054,1.7888,1.8025,1.8023,1.8022,1.8022,1.8021,1.8122,1.8145,1.8135,1.8149,1.8145,1.8145,1.8164,1.8147,1.816,1.8167,1.8144,1.8165,1.8157,1.816,1.8157,1.8173,1.8149,1.8165,1.8169,1.8173,1.818,1.8055,1.8173,1.8173,1.8173,1.8172,1.8172,0,1.8257,1.8247,1.826,1.826,1.8271,1.8236,1.8234,1.8245,1.8264,1.8259,1.8267,1.8285,1.8297,1.8277,1.8286,1.8302,1.8286,1.8305,1.8304,1.8303,1.8201,1.8191,1.8317,1.8317,1.8317,1.8317,1.8317,1.8317,1.8328,1.8364,1.8346,1.8379,1.8369,1.8389,1.839,1.839,1.8386,1.8407,1.8416,1.8402,1.8391,1.8398,1.8407,1.8401,1.8406,1.843,1.8419,1.8324,1.831,1.8297,1.8287,1.8432,1.8432,1.8519,1.852,1.8521]}]]